• In Belgien
  • Länderverzeichnis
  • Für 7 Tage
  • Wassertemperatur
  • Satellitenkarten
  • Wetterkarte
  • Widgets
  • user-avatar
    Anmelden

    Stündliche Wetter Ans

    Heute, 21 Februar, Mittwoch

    Zeit Temperatur Niederschläge Wind Luftdruck Luftfeuchtigkeit
    00:00 -3°C° 0 mm 2 m/S 751 mmHg 84%
    01:00 -3°C° 0 mm 2 m/S 751 mmHg 85%
    02:00 -3°C° 0 mm 2 m/S 752 mmHg 86%
    03:00 -4°C° 0 mm 2 m/S 752 mmHg 86%
    04:00 -4°C° 0 mm 2 m/S 752 mmHg 86%
    05:00 -4°C° 0 mm 2 m/S 752 mmHg 86%
    06:00 -4°C° 0 mm 2 m/S 753 mmHg 89%
    07:00 -4°C° 0 mm 3 m/S 753 mmHg 82%
    08:00 -1°C° 0 mm 3 m/S 753 mmHg 76%
    09:00 0°C° 0 mm 3 m/S 753 mmHg 69%
    10:00 0°C° 0 mm 4 m/S 753 mmHg 65%
    11:00 +1°C° 0 mm 4 m/S 753 mmHg 61%
    12:00 +3°C° 0 mm 4 m/S 753 mmHg 56%
    13:00 +3°C° 0 mm 4 m/S 752 mmHg 56%
    14:00 +3°C° 0 mm 4 m/S 752 mmHg 57%
    15:00 +3°C° 0 mm 4 m/S 751 mmHg 57%
    16:00 +1°C° 0 mm 4 m/S 752 mmHg 62%
    17:00 0°C° 0 mm 3 m/S 752 mmHg 68%
    18:00 -1°C° 0 mm 3 m/S 752 mmHg 74%
    19:00 -2°C° 0 mm 3 m/S 752 mmHg 76%
    20:00 -2°C° 0 mm 3 m/S 752 mmHg 77%
    21:00 -4°C° 0 mm 3 m/S 752 mmHg 79%
    22:00 -4°C° 0 mm 3 m/S 752 mmHg 80%
    23:00 -4°C° 0 mm 3 m/S 752 mmHg 80%

    Morgen, 22 Februar, Donnerstag

    Zeit Temperatur Niederschläge Wind Luftdruck Luftfeuchtigkeit
    00:00 -4°C° 0 mm 3 m/S 752 mmHg 81%
    01:00 -4°C° 0 mm 3 m/S 752 mmHg 81%
    02:00 -4°C° 0 mm 3 m/S 752 mmHg 80%
    03:00 -4°C° 0 mm 3 m/S 752 mmHg 80%
    04:00 -4°C° 0 mm 3 m/S 752 mmHg 79%
    05:00 -4°C° 0 mm 3 m/S 752 mmHg 78%
    06:00 -5°C° 0 mm 4 m/S 752 mmHg 77%
    07:00 -4°C° 0 mm 4 m/S 752 mmHg 70%
    08:00 -4°C° 0 mm 5 m/S 752 mmHg 63%
    09:00 -2°C° 0 mm 5 m/S 752 mmHg 56%
    10:00 -1°C° 0 mm 5 m/S 752 mmHg 51%
    11:00 -1°C° 0 mm 6 m/S 752 mmHg 47%
    12:00 +1°C° 0 mm 6 m/S 752 mmHg 42%
    13:00 +1°C° 0 mm 6 m/S 751 mmHg 43%
    14:00 +1°C° 0 mm 6 m/S 751 mmHg 43%
    15:00 +2°C° 0 mm 5 m/S 751 mmHg 44%
    16:00 0°C° 0 mm 5 m/S 751 mmHg 50%
    17:00 -1°C° 0 mm 4 m/S 751 mmHg 55%
    18:00 -2°C° 0 mm 4 m/S 751 mmHg 61%
    19:00 -3°C° 0 mm 4 m/S 751 mmHg 63%
    20:00 -3°C° 0 mm 4 m/S 751 mmHg 65%
    21:00 -3°C° 0 mm 4 m/S 752 mmHg 67%
    22:00 -4°C° 0 mm 4 m/S 752 mmHg 69%
    23:00 -4°C° 0 mm 4 m/S 751 mmHg 70%

    übermorgen, 23 Februar, Freitag

    Zeit Temperatur Niederschläge Wind Luftdruck Luftfeuchtigkeit
    00:00 -4°C° 0 mm 3 m/S 751 mmHg 72%
    01:00 -5°C° 0 mm 3 m/S 751 mmHg 72%
    02:00 -5°C° 0 mm 3 m/S 751 mmHg 73%
    03:00 -5°C° 0 mm 4 m/S 751 mmHg 73%
    04:00 -5°C° 0 mm 4 m/S 751 mmHg 73%
    05:00 -5°C° 0 mm 4 m/S 751 mmHg 72%
    06:00 -5°C° 0 mm 4 m/S 751 mmHg 71%
    07:00 -4°C° 0 mm 4 m/S 751 mmHg 64%
    08:00 -4°C° 0 mm 5 m/S 751 mmHg 57%
    09:00 -4°C° 0 mm 5 m/S 751 mmHg 49%
    10:00 -2°C° 0 mm 5 m/S 751 mmHg 45%
    11:00 -1°C° 0 mm 5 m/S 751 mmHg 41%
    12:00 -1°C° 0 mm 6 m/S 750 mmHg 36%
    13:00 +1°C° 0 mm 5 m/S 750 mmHg 36%
    14:00 +1°C° 0 mm 5 m/S 750 mmHg 35%
    15:00 +1°C° 0 mm 5 m/S 750 mmHg 35%
    16:00 0°C° 0 mm 5 m/S 750 mmHg 38%
    17:00 -2°C° 0 mm 4 m/S 750 mmHg 41%
    18:00 -3°C° 0 mm 4 m/S 750 mmHg 43%
    19:00 -3°C° 0 mm 4 m/S 750 mmHg 44%
    20:00 -4°C° 0 mm 4 m/S 750 mmHg 45%
    21:00 -4°C° 0 mm 4 m/S 750 mmHg 45%
    22:00 -4°C° 0 mm 4 m/S 750 mmHg 47%
    23:00 -4°C° 0 mm 4 m/S 750 mmHg 49%

    24 Februar, Samstag

    Zeit Temperatur Niederschläge Wind Luftdruck Luftfeuchtigkeit
    00:00 -4°C° 0 mm 4 m/S 750 mmHg 51%
    01:00 -4°C° 0 mm 4 m/S 750 mmHg 51%
    02:00 -4°C° 0 mm 4 m/S 750 mmHg 52%
    03:00 -4°C° 0 mm 4 m/S 750 mmHg 52%
    04:00 -4°C° 0 mm 4 m/S 750 mmHg 51%
    05:00 -5°C° 0 mm 5 m/S 750 mmHg 50%
    06:00 -5°C° 0 mm 5 m/S 750 mmHg 48%
    07:00 -4°C° 0 mm 5 m/S 750 mmHg 44%
    08:00 -3°C° 0 mm 6 m/S 750 mmHg 39%
    09:00 -2°C° 0 mm 7 m/S 750 mmHg 35%
    10:00 -1°C° 0 mm 7 m/S 750 mmHg 33%
    11:00 +2°C° 0 mm 7 m/S 750 mmHg 32%
    12:00 +3°C° 0 mm 7 m/S 750 mmHg 30%
    13:00 +3°C° 0 mm 7 m/S 750 mmHg 33%
    14:00 +3°C° 0 mm 7 m/S 750 mmHg 36%
    15:00 +3°C° 0 mm 7 m/S 749 mmHg 38%
    16:00 +2°C° 0 mm 7 m/S 750 mmHg 44%
    17:00 -1°C° 0 mm 6 m/S 750 mmHg 50%
    18:00 -2°C° 0 mm 6 m/S 750 mmHg 55%
    19:00 -3°C° 0 mm 6 m/S 751 mmHg 53%
    20:00 -3°C° 0 mm 6 m/S 751 mmHg 51%
    21:00 -4°C° 0 mm 6 m/S 751 mmHg 49%
    22:00 -4°C° 0 mm 6 m/S 752 mmHg 47%
    23:00 -5°C° 0 mm 6 m/S 752 mmHg 44%

    25 Februar, Sonntag

    Zeit Temperatur Niederschläge Wind Luftdruck Luftfeuchtigkeit
    00:00 -5°C° 0 mm 6 m/S 752 mmHg 42%
    01:00 -6°C° 0 mm 6 m/S 752 mmHg 40%
    02:00 -6°C° 0 mm 6 m/S 752 mmHg 38%
    03:00 -6°C° 0 mm 6 m/S 752 mmHg 36%
    04:00 -8°C° 0 mm 6 m/S 753 mmHg 36%
    05:00 -8°C° 0 mm 6 m/S 753 mmHg 35%
    06:00 -8°C° 0 mm 6 m/S 753 mmHg 35%
    07:00 -6°C° 0 mm 6 m/S 753 mmHg 33%
    08:00 -6°C° 0 mm 6 m/S 754 mmHg 31%
    09:00 -6°C° 0 mm 7 m/S 754 mmHg 29%
    10:00 -4°C° 0 mm 7 m/S 754 mmHg 27%
    11:00 -3°C° 0 mm 7 m/S 754 mmHg 25%
    12:00 -2°C° 0 mm 7 m/S 754 mmHg 23%
    13:00 -2°C° 0 mm 7 m/S 754 mmHg 23%
    14:00 -2°C° 0 mm 6 m/S 754 mmHg 23%
    15:00 -2°C° 0 mm 6 m/S 754 mmHg 24%
    16:00 -4°C° 0 mm 6 m/S 754 mmHg 26%
    17:00 -5°C° 0 mm 5 m/S 755 mmHg 29%
    18:00 -6°C° 0 mm 5 m/S 755 mmHg 31%
    19:00 -6°C° 0 mm 5 m/S 755 mmHg 33%
    20:00 -7°C° 0 mm 5 m/S 756 mmHg 34%
    21:00 -7°C° 0 mm 5 m/S 756 mmHg 36%
    22:00 -8°C° 0 mm 4 m/S 756 mmHg 38%
    23:00 -8°C° 0 mm 4 m/S 756 mmHg 40%

    26 Februar, Montag

    Zeit Temperatur Niederschläge Wind Luftdruck Luftfeuchtigkeit
    00:00 -8°C° 0 mm 4 m/S 756 mmHg 43%
    01:00 -8°C° 0 mm 4 m/S 756 mmHg 43%
    02:00 -8°C° 0 mm 4 m/S 756 mmHg 44%
    03:00 -8°C° 0 mm 4 m/S 756 mmHg 45%
    04:00 -9°C° 0 mm 4 m/S 756 mmHg 45%
    05:00 -9°C° 0 mm 4 m/S 756 mmHg 45%
    06:00 -9°C° 0 mm 4 m/S 756 mmHg 45%
    07:00 -8°C° 0 mm 5 m/S 756 mmHg 42%
    08:00 -8°C° 0 mm 5 m/S 756 mmHg 39%
    09:00 -7°C° 0 mm 5 m/S 757 mmHg 36%
    10:00 -6°C° 0 mm 5 m/S 756 mmHg 34%
    11:00 -5°C° 0 mm 6 m/S 756 mmHg 32%
    12:00 -5°C° 0 mm 6 m/S 756 mmHg 29%
    13:00 -5°C° 0 mm 6 m/S 755 mmHg 30%
    14:00 -4°C° 0 mm 5 m/S 755 mmHg 31%
    15:00 -4°C° 0 mm 5 m/S 754 mmHg 31%
    16:00 -5°C° 0 mm 5 m/S 754 mmHg 36%
    17:00 -5°C° 0 mm 4 m/S 754 mmHg 40%
    18:00 -7°C° 0 mm 4 m/S 754 mmHg 45%
    19:00 -7°C° 0 mm 3 m/S 754 mmHg 46%
    20:00 -7°C° 0 mm 3 m/S 754 mmHg 47%
    21:00 -7°C° 0 mm 3 m/S 755 mmHg 49%
    22:00 -7°C° 0 mm 3 m/S 754 mmHg 50%
    23:00 -7°C° 0 mm 3 m/S 754 mmHg 51%
    Mehr zeigen